GEFSMW_850_meantemp_000.txt.gz
Temperature
3 3 2 3 3 3 3 3 2 2 2 2 2 2 2 2 2 2 3 3 3 4 4 4 5 6 7 8 8 9 9 9 10 10 11 11 12 12 12 12 12 12 12
2 2 2 2 2 2 2 1 -1 -2 -2 -2 -1 -1 -0 0 1 1 1 1 2 2 2 3 3 4 5 6 7 8 8 9 9 9 9 10 10 11 12 12 13 13 12
0 -0 -0 -0 -0 0 -0 -1 -2 -2 -2 -2 -2 -2 -2 -2 -2 -1 -0 0 1 1 2 2 2 2 3 4 5 6 6 7 9 9 9 9 10 10 11 12 12 12 12
-0 -1 -1 -2 -2 -2 -3 -3 -4 -4 -4 -3 -3 -3 -4 -4 -5 -5 -4 -2 -1 0 1 1 1 1 2 2 3 4 5 5 6 8 8 8 9 10 10 11 11 11 11
-1 -2 -3 -3 -4 -4 -5 -4 -4 -4 -4 -4 -4 -4 -5 -5 -6 -6 -6 -6 -5 -4 -2 -1 -1 -1 -0 1 1 2 3 4 5 7 7 8 8 9 10 10 10 11 11
-1 -2 -3 -4 -5 -5 -5 -4 -5 -6 -6 -5 -5 -6 -7 -7 -7 -7 -7 -7 -6 -6 -5 -4 -4 -3 -2 -2 -0 1 2 4 4 5 6 7 7 8 9 9 10 10 10
-2 -3 -4 -4 -5 -6 -6 -5 -6 -7 -8 -7 -6 -7 -8 -8 -8 -8 -7 -7 -6 -6 -6 -5 -5 -5 -4 -4 -3 -1 1 2 3 5 6 6 7 8 9 9 9 9 9
-3 -4 -4 -5 -6 -7 -7 -6 -7 -7 -8 -8 -8 -8 -8 -9 -9 -8 -8 -7 -7 -7 -6 -6 -6 -5 -5 -4 -3 -2 -0 1 3 5 5 5 6 6 8 9 9 8 8
-3 -4 -4 -5 -6 -7 -8 -8 -8 -8 -8 -9 -9 -9 -9 -9 -9 -9 -8 -7 -7 -7 -7 -6 -6 -5 -4 -3 -3 -2 -1 1 2 3 4 4 5 5 7 8 8 8 8
-4 -5 -6 -6 -7 -8 -9 -9 -9 -10 -10 -10 -10 -10 -10 -10 -9 -9 -8 -8 -8 -8 -7 -6 -5 -5 -4 -3 -2 -2 -1 -0 1 2 3 4 4 5 7 8 8 8 8
-5 -5 -6 -7 -8 -8 -9 -10 -10 -10 -10 -11 -11 -11 -10 -10 -10 -9 -9 -8 -8 -8 -7 -6 -5 -5 -5 -4 -3 -2 -1 -1 0 1 2 3 4 5 5 6 7 7 7
-5 -6 -7 -7 -8 -8 -9 -10 -11 -11 -11 -11 -11 -11 -11 -10 -10 -10 -10 -9 -9 -8 -8 -6 -6 -5 -5 -5 -3 -2 -1 -1 0 1 2 2 2 2 3 5 6 6 6
-6 -7 -7 -8 -9 -9 -9 -10 -10 -11 -11 -11 -11 -11 -11 -11 -11 -10 -10 -10 -9 -9 -8 -7 -6 -6 -6 -5 -5 -3 -2 -1 -1 -0 0 0 0 1 3 4 5 6 6
-7 -8 -8 -9 -10 -10 -10 -10 -11 -12 -12 -12 -12 -12 -12 -12 -12 -11 -11 -10 -10 -9 -8 -8 -7 -6 -6 -6 -5 -5 -4 -3 -2 -1 -1 -1 -1 0 1 2 2 3 5
-8 -9 -9 -10 -10 -10 -11 -11 -11 -12 -13 -13 -13 -13 -13 -13 -12 -12 -11 -11 -11 -10 -9 -9 -8 -7 -6 -6 -6 -5 -5 -5 -4 -4 -3 -2 -1 0 0 1 1 1 2
-9 -9 -10 -10 -11 -11 -12 -12 -12 -13 -13 -13 -13 -13 -13 -13 -13 -13 -12 -12 -11 -11 -10 -9 -9 -8 -7 -7 -7 -7 -6 -6 -5 -5 -5 -4 -2 -2 -1 -1 -1 0 1
-9 -10 -10 -11 -11 -12 -12 -12 -13 -13 -13 -13 -14 -14 -14 -14 -13 -14 -13 -13 -12 -11 -11 -10 -10 -9 -8 -8 -8 -8 -7 -7 -6 -6 -6 -5 -4 -4 -3 -2 -2 -2 -1
-9 -10 -10 -11 -11 -12 -12 -13 -13 -13 -13 -13 -14 -14 -14 -14 -14 -14 -14 -13 -13 -12 -12 -11 -11 -10 -9 -8 -8 -8 -9 -8 -8 -7 -7 -6 -6 -6 -5 -4 -4 -3 -3
-10 -10 -11 -11 -11 -12 -12 -13 -13 -13 -14 -14 -14 -14 -14 -14 -15 -15 -14 -14 -13 -13 -12 -12 -11 -10 -10 -9 -9 -8 -9 -9 -8 -8 -8 -8 -8 -8 -7 -6 -5 -5 -5
-9 -10 -10 -11 -11 -12 -12 -13 -13 -14 -14 -14 -14 -14 -15 -15 -15 -15 -15 -14 -14 -13 -13 -12 -12 -11 -10 -10 -9 -9 -9 -9 -9 -9 -8 -8 -8 -9 -9 -7 -7 -7 -6
-9 -10 -10 -10 -11 -12 -12 -13 -13 -14 -14 -14 -14 -14 -14 -15 -15 -15 -15 -14 -14 -14 -13 -13 -13 -12 -11 -11 -10 -9 -9 -9 -10 -10 -9 -9 -9 -9 -10 -9 -9 -9 -9
-9 -9 -10 -10 -11 -12 -13 -13 -14 -14 -14 -14 -14 -14 -14 -15 -15 -15 -14 -14 -14 -14 -14 -14 -14 -13 -12 -11 -11 -10 -10 -10 -10 -10 -10 -9 -10 -11 -11 -10 -10 -10 -10
-9 -9 -10 -10 -11 -12 -13 -13 -14 -14 -14 -14 -14 -14 -14 -14 -15 -14 -14 -14 -14 -14 -15 -15 -14 -14 -13 -12 -11 -11 -11 -11 -10 -10 -10 -11 -10 -11 -11 -11 -10 -10 -10
-9 -9 -10 -10 -11 -11 -12 -13 -13 -14 -14 -14 -14 -14 -14 -14 -14 -14 -14 -14 -15 -15 -15 -14 -15 -14 -14 -13 -12 -12 -12 -11 -11 -11 -11 -12 -12 -12 -12 -12 -12 -11 -11
-9 -9 -10 -10 -11 -11 -12 -13 -13 -14 -14 -14 -13 -13 -14 -14 -14 -14 -14 -14 -14 -15 -14 -14 -15 -14 -14 -13 -12 -12 -12 -12 -11 -12 -12 -12 -12 -12 -12 -13 -13 -13 -13
-9 -9 -10 -10 -10 -11 -12 -12 -13 -13 -13 -13 -13 -13 -14 -15 -15 -15 -14 -14 -15 -15 -15 -15 -14 -14 -14 -13 -13 -13 -13 -13 -13 -13 -14 -14 -13 -13 -14 -14 -14 -14 -14

GEFSMW_850_meantemp_006.txt.gz
Temperature
2 1 0 -0 -1 -1 -1 -1 -1 -2 -2 -3 -3 -2 -3 -3 -4 -4 -3 -2 -2 -2 -3 -3 -2 -1 -1 0 0 1 1 2 3 5 7 9 9 10 10 11 11 12 12
2 1 -0 -1 -2 -3 -3 -3 -3 -3 -4 -5 -4 -4 -4 -4 -4 -5 -5 -4 -4 -5 -5 -5 -5 -4 -3 -2 -2 -1 -1 -0 1 2 4 8 10 10 10 11 11 11 12
1 0 -1 -2 -3 -4 -4 -4 -3 -4 -5 -5 -5 -5 -5 -5 -5 -5 -6 -6 -6 -6 -6 -5 -5 -5 -5 -5 -4 -4 -4 -3 -1 0 2 5 9 10 11 11 11 11 11
1 -0 -2 -3 -4 -5 -5 -5 -5 -5 -6 -6 -7 -7 -7 -7 -7 -7 -7 -6 -6 -6 -6 -6 -6 -6 -6 -6 -5 -5 -5 -4 -3 -2 0 2 4 6 9 10 10 10 11
1 -1 -2 -4 -5 -6 -6 -6 -6 -6 -6 -7 -8 -8 -8 -8 -8 -8 -8 -7 -7 -7 -7 -7 -7 -6 -6 -6 -6 -5 -5 -4 -4 -3 -2 -1 2 4 5 8 10 10 10
0 -2 -3 -4 -5 -6 -7 -7 -7 -7 -7 -7 -8 -9 -9 -9 -9 -9 -9 -9 -8 -7 -7 -7 -7 -7 -7 -6 -6 -5 -5 -4 -4 -4 -3 -2 -1 2 4 6 8 9 10
-1 -2 -4 -5 -6 -7 -8 -8 -8 -8 -8 -8 -9 -9 -9 -10 -10 -10 -10 -9 -9 -9 -8 -8 -8 -7 -7 -6 -6 -5 -5 -4 -4 -3 -3 -3 -2 -0 2 4 6 7 9
-2 -3 -4 -6 -7 -8 -8 -8 -9 -9 -10 -10 -10 -10 -10 -11 -11 -11 -11 -10 -10 -10 -9 -9 -8 -8 -7 -6 -6 -6 -5 -5 -4 -3 -3 -3 -2 -1 0 2 4 6 7
-3 -4 -5 -6 -7 -8 -8 -9 -10 -10 -11 -11 -11 -11 -11 -11 -11 -11 -11 -11 -11 -10 -10 -9 -9 -8 -7 -7 -6 -6 -6 -5 -4 -3 -3 -2 -2 -1 0 1 3 4 6
-3 -4 -5 -6 -8 -8 -9 -9 -10 -11 -11 -11 -12 -12 -12 -12 -12 -12 -12 -12 -11 -11 -10 -10 -9 -9 -8 -7 -7 -6 -6 -5 -4 -3 -2 -2 -1 -0 1 2 2 3 4
-4 -5 -6 -7 -8 -9 -9 -9 -10 -10 -11 -12 -12 -12 -12 -12 -13 -13 -13 -12 -12 -12 -11 -10 -10 -9 -8 -8 -7 -7 -7 -6 -5 -3 -2 -1 -0 0 1 2 2 3 3
-4 -5 -6 -7 -8 -9 -10 -10 -10 -10 -11 -11 -12 -12 -12 -13 -13 -13 -13 -13 -13 -12 -12 -11 -10 -10 -9 -8 -7 -7 -7 -6 -5 -4 -2 -1 -1 0 1 1 2 3 3
-4 -6 -7 -8 -9 -9 -10 -10 -10 -10 -11 -11 -12 -12 -13 -13 -13 -13 -13 -13 -13 -13 -12 -12 -11 -10 -9 -8 -8 -7 -7 -6 -6 -5 -4 -2 -2 -1 -0 0 1 2 2
-5 -6 -7 -8 -9 -10 -10 -10 -11 -11 -11 -12 -12 -12 -13 -13 -14 -13 -14 -13 -13 -13 -13 -12 -12 -11 -10 -8 -8 -7 -7 -7 -6 -6 -5 -4 -3 -2 -1 -0 0 1 2
-6 -7 -8 -9 -9 -10 -10 -10 -11 -11 -12 -12 -12 -12 -13 -13 -13 -14 -14 -14 -14 -13 -13 -12 -12 -11 -10 -9 -8 -7 -7 -7 -7 -6 -6 -5 -4 -3 -2 -1 -0 0 1
-6 -7 -8 -9 -10 -10 -10 -10 -11 -11 -12 -12 -12 -13 -13 -13 -13 -14 -14 -14 -14 -14 -13 -13 -13 -12 -11 -10 -9 -8 -8 -8 -7 -7 -7 -6 -5 -3 -3 -2 -1 -1 0
-7 -8 -9 -10 -10 -9 -9 -10 -11 -11 -12 -12 -12 -13 -13 -13 -14 -14 -14 -14 -14 -14 -14 -14 -13 -13 -12 -10 -9 -9 -9 -8 -8 -8 -7 -7 -6 -5 -4 -3 -2 -2 -1
-8 -8 -9 -9 -9 -9 -10 -10 -10 -11 -12 -12 -12 -13 -13 -14 -14 -14 -15 -15 -15 -14 -14 -14 -13 -13 -12 -11 -10 -9 -9 -9 -8 -8 -8 -8 -7 -6 -5 -4 -3 -3 -3
-8 -8 -8 -8 -9 -9 -10 -10 -11 -11 -12 -12 -13 -13 -14 -14 -15 -15 -14 -14 -15 -14 -14 -14 -13 -13 -12 -11 -9 -9 -9 -9 -9 -8 -8 -8 -8 -8 -7 -6 -5 -5 -5
-7 -7 -8 -8 -9 -9 -10 -10 -11 -11 -12 -12 -12 -13 -14 -15 -15 -15 -15 -15 -15 -14 -14 -14 -13 -13 -12 -11 -10 -10 -9 -9 -9 -9 -9 -9 -9 -8 -8 -8 -8 -7 -7
-7 -7 -7 -8 -9 -9 -10 -10 -11 -11 -11 -12 -12 -13 -14 -14 -15 -15 -15 -15 -15 -14 -14 -14 -13 -13 -13 -12 -11 -10 -10 -10 -10 -10 -10 -10 -10 -9 -9 -9 -10 -10 -9
-7 -7 -7 -8 -9 -10 -10 -10 -11 -11 -11 -11 -12 -12 -13 -14 -15 -15 -15 -15 -15 -14 -14 -14 -13 -13 -13 -12 -12 -11 -11 -10 -10 -10 -11 -11 -10 -10 -10 -10 -10 -10 -10
-7 -7 -7 -8 -9 -10 -10 -10 -11 -11 -11 -11 -12 -12 -12 -13 -14 -14 -14 -14 -14 -14 -14 -14 -13 -13 -13 -13 -12 -12 -12 -11 -11 -12 -12 -12 -11 -11 -11 -11 -11 -10 -10
-7 -7 -8 -8 -9 -9 -10 -10 -10 -11 -11 -12 -12 -12 -13 -14 -14 -14 -14 -14 -14 -14 -13 -13 -13 -13 -13 -13 -13 -13 -13 -12 -12 -13 -13 -13 -12 -12 -12 -12 -11 -11 -12
-7 -7 -8 -8 -9 -9 -10 -10 -10 -10 -11 -12 -12 -12 -13 -14 -14 -14 -14 -14 -14 -14 -14 -14 -14 -14 -13 -13 -13 -13 -13 -14 -14 -13 -13 -13 -13 -13 -13 -13 -13 -13 -13
-7 -7 -8 -8 -9 -9 -9 -9 -10 -10 -11 -12 -12 -13 -14 -13 -13 -14 -14 -14 -14 -14 -15 -15 -14 -14 -14 -13 -14 -14 -14 -14 -14 -14 -14 -14 -14 -14 -14 -14 -14 -14 -14

GEFSMW_850_meantemp_012.txt.gz
Temperature
4 3 2 1 -0 -1 -2 -3 -3 -4 -4 -4 -4 -5 -5 -5 -5 -5 -6 -6 -6 -6 -6 -6 -6 -6 -6 -6 -6 -6 -5 -5 -4 -2 1 4 5 6 8 10 10 10 11
4 3 2 0 -1 -2 -3 -4 -4 -5 -5 -5 -6 -6 -6 -6 -6 -6 -6 -7 -7 -7 -7 -7 -7 -7 -7 -6 -6 -6 -6 -6 -5 -5 -4 -1 2 5 7 8 9 10 10
4 3 1 -0 -2 -3 -4 -4 -5 -5 -6 -6 -6 -6 -6 -6 -6 -6 -7 -7 -8 -8 -8 -8 -8 -8 -8 -7 -7 -6 -6 -6 -5 -5 -4 -3 -1 -1 6 7 8 9 10
3 2 0 -1 -2 -3 -4 -5 -5 -6 -6 -6 -7 -7 -8 -8 -8 -8 -8 -8 -8 -8 -9 -9 -9 -9 -8 -8 -8 -7 -7 -6 -6 -5 -5 -4 -4 -3 -1 5 7 7 8
3 1 -0 -1 -3 -4 -4 -5 -6 -6 -7 -7 -7 -8 -8 -9 -8 -8 -8 -8 -8 -9 -9 -9 -10 -9 -9 -9 -8 -8 -7 -7 -6 -5 -5 -5 -4 -4 -3 -2 4 6 7
2 1 -1 -2 -3 -4 -5 -5 -6 -7 -7 -7 -8 -8 -9 -9 -9 -9 -9 -9 -9 -9 -10 -10 -10 -10 -10 -9 -9 -8 -8 -7 -6 -6 -5 -5 -5 -4 -3 -2 -1 1 5
1 -0 -1 -3 -3 -4 -5 -6 -6 -6 -7 -8 -8 -9 -9 -10 -10 -10 -10 -10 -10 -10 -11 -11 -11 -11 -10 -10 -9 -9 -8 -7 -7 -6 -6 -6 -5 -4 -4 -3 -2 -1 2
1 -1 -2 -3 -4 -5 -5 -5 -6 -7 -7 -8 -9 -9 -10 -10 -11 -11 -11 -11 -11 -11 -11 -12 -11 -11 -11 -10 -10 -9 -8 -8 -7 -7 -6 -6 -6 -5 -4 -3 -3 -2 -1
-0 -1 -2 -3 -4 -5 -5 -6 -7 -7 -8 -8 -9 -10 -10 -11 -11 -11 -11 -12 -12 -12 -12 -12 -12 -12 -11 -11 -10 -9 -9 -8 -7 -7 -7 -6 -6 -5 -4 -3 -3 -2 -1
-0 -2 -3 -3 -4 -5 -6 -6 -7 -8 -8 -9 -10 -10 -11 -11 -11 -12 -12 -12 -12 -12 -12 -12 -12 -12 -12 -11 -11 -10 -9 -8 -7 -7 -7 -7 -6 -5 -4 -3 -2 -2 -2
-1 -2 -3 -4 -5 -5 -6 -7 -8 -8 -9 -9 -10 -11 -11 -12 -12 -12 -12 -12 -13 -13 -13 -13 -13 -13 -12 -11 -11 -10 -9 -8 -8 -7 -7 -7 -6 -5 -4 -3 -2 -2 -1
-1 -2 -3 -4 -5 -6 -7 -7 -8 -9 -9 -10 -10 -11 -11 -12 -12 -13 -13 -13 -13 -13 -13 -13 -13 -13 -12 -12 -11 -10 -9 -8 -8 -8 -7 -7 -6 -5 -4 -3 -2 -1 -1
-2 -3 -4 -5 -5 -6 -7 -8 -8 -9 -9 -10 -10 -11 -12 -12 -13 -13 -13 -13 -13 -13 -13 -13 -14 -13 -13 -12 -11 -10 -9 -8 -8 -8 -7 -7 -6 -5 -4 -3 -2 -1 -0
-3 -4 -4 -5 -6 -7 -7 -8 -9 -9 -10 -10 -11 -11 -12 -12 -13 -13 -14 -14 -14 -14 -14 -14 -13 -13 -13 -12 -11 -9 -8 -8 -8 -8 -7 -7 -7 -6 -4 -3 -2 -1 -1
-3 -4 -5 -5 -6 -7 -8 -8 -9 -9 -10 -10 -11 -12 -12 -13 -13 -13 -14 -14 -14 -14 -14 -14 -13 -13 -13 -12 -10 -9 -8 -8 -8 -8 -8 -8 -7 -7 -5 -4 -3 -2 -1
-4 -4 -5 -5 -6 -7 -8 -8 -9 -9 -10 -11 -11 -12 -12 -13 -13 -13 -14 -14 -14 -14 -14 -14 -13 -13 -13 -11 -9 -8 -8 -8 -8 -8 -9 -8 -8 -8 -7 -6 -5 -4 -3
-4 -4 -5 -6 -7 -8 -8 -9 -9 -9 -10 -11 -12 -12 -12 -13 -13 -13 -14 -14 -14 -14 -14 -14 -13 -13 -12 -11 -9 -9 -9 -9 -9 -9 -9 -9 -9 -8 -8 -7 -6 -5 -5
-4 -5 -5 -6 -7 -8 -8 -8 -9 -10 -11 -11 -12 -12 -12 -13 -13 -13 -13 -14 -14 -14 -13 -13 -13 -13 -12 -11 -9 -9 -9 -9 -9 -9 -9 -9 -9 -9 -9 -8 -7 -7 -6
-4 -5 -5 -6 -7 -8 -8 -8 -9 -10 -11 -11 -11 -12 -13 -13 -13 -13 -13 -13 -13 -13 -13 -13 -13 -13 -12 -11 -10 -10 -10 -10 -10 -10 -9 -10 -10 -9 -10 -9 -9 -7 -7
-4 -5 -6 -6 -7 -8 -8 -8 -9 -10 -11 -11 -11 -12 -13 -13 -13 -13 -13 -13 -13 -13 -13 -13 -13 -13 -12 -11 -11 -11 -11 -11 -11 -10 -10 -10 -10 -10 -10 -10 -10 -9 -8
-4 -5 -6 -6 -7 -8 -8 -8 -9 -10 -11 -11 -11 -12 -12 -13 -13 -13 -13 -13 -13 -13 -13 -13 -13 -13 -12 -12 -11 -11 -11 -12 -12 -12 -11 -11 -11 -11 -11 -11 -11 -11 -9
-4 -5 -6 -6 -7 -8 -8 -8 -9 -10 -10 -11 -11 -12 -12 -13 -13 -13 -13 -13 -13 -13 -13 -13 -13 -13 -13 -12 -12 -12 -12 -12 -12 -12 -12 -12 -12 -11 -11 -11 -11 -11 -10
-5 -5 -6 -6 -7 -8 -8 -9 -9 -9 -10 -10 -11 -11 -12 -12 -13 -13 -13 -13 -13 -13 -14 -13 -13 -13 -13 -13 -13 -13 -13 -13 -13 -13 -13 -13 -12 -12 -11 -12 -11 -11 -11
-5 -5 -6 -6 -7 -7 -8 -8 -9 -9 -9 -10 -11 -11 -12 -12 -13 -13 -13 -13 -13 -13 -13 -14 -13 -13 -13 -13 -13 -14 -14 -14 -14 -13 -13 -13 -13 -13 -13 -12 -12 -12 -12
-5 -6 -6 -6 -7 -7 -8 -8 -8 -8 -9 -10 -11 -11 -12 -13 -13 -13 -13 -13 -13 -13 -13 -14 -13 -13 -13 -13 -13 -13 -13 -14 -14 -14 -14 -14 -13 -14 -14 -14 -14 -13 -13
-5 -5 -6 -6 -7 -7 -7 -8 -8 -8 -9 -10 -11 -11 -12 -13 -13 -13 -13 -13 -13 -13 -14 -14 -13 -13 -13 -13 -13 -13 -13 -13 -14 -14 -14 -15 -15 -15 -15 -15 -15 -15 -14

GEFSMW_850_meantemp_018.txt.gz
Temperature
3 2 2 2 1 0 -1 -2 -2 -2 -2 -2 -2 -3 -3 -4 -5 -5 -6 -6 -7 -7 -7 -8 -8 -8 -8 -8 -8 -8 -8 -8 -7 -7 -6 -3 -1 1 1 2 3 4 6
3 2 2 2 0 -1 -2 -2 -2 -2 -3 -3 -4 -5 -5 -5 -6 -6 -7 -7 -8 -8 -9 -9 -9 -9 -9 -9 -9 -9 -9 -9 -8 -8 -7 -6 -4 -1 1 2 2 2 4
3 2 2 0 -1 -2 -2 -2 -3 -3 -4 -4 -5 -5 -5 -6 -6 -7 -7 -8 -8 -9 -9 -10 -10 -10 -10 -10 -10 -10 -10 -10 -9 -8 -8 -7 -5 -6 -3 -1 0 2 2
3 2 1 -0 -2 -2 -3 -3 -3 -4 -5 -5 -6 -6 -7 -7 -8 -9 -9 -9 -9 -9 -10 -10 -11 -11 -11 -11 -11 -11 -11 -10 -10 -9 -8 -8 -7 -6 -5 -4 -2 -1 1
2 1 0 -1 -2 -2 -3 -4 -4 -5 -5 -6 -7 -7 -8 -9 -9 -9 -9 -9 -9 -10 -10 -11 -11 -11 -11 -11 -11 -11 -11 -11 -10 -10 -9 -8 -7 -7 -6 -6 -5 -2 -0
2 1 0 -1 -2 -3 -4 -4 -5 -5 -6 -7 -7 -8 -9 -9 -10 -10 -10 -11 -11 -11 -11 -12 -12 -12 -12 -12 -11 -11 -11 -10 -10 -10 -9 -9 -8 -7 -7 -6 -6 -6 -2
1 1 -0 -2 -3 -4 -4 -5 -5 -6 -7 -7 -8 -9 -9 -10 -10 -11 -11 -12 -12 -12 -12 -13 -13 -13 -12 -12 -12 -12 -11 -10 -10 -10 -9 -9 -8 -8 -7 -7 -7 -6 -5
1 0 -1 -3 -4 -4 -5 -5 -6 -6 -7 -8 -8 -9 -10 -10 -11 -11 -12 -12 -12 -13 -13 -13 -13 -13 -13 -12 -12 -12 -11 -11 -10 -10 -9 -9 -8 -8 -7 -7 -7 -6 -6
0 -1 -2 -3 -4 -5 -5 -5 -6 -7 -7 -8 -9 -10 -11 -11 -11 -12 -12 -13 -13 -13 -13 -13 -13 -13 -13 -13 -13 -12 -11 -10 -10 -9 -9 -8 -8 -8 -7 -7 -7 -6 -6
-0 -2 -3 -4 -5 -5 -5 -6 -6 -7 -8 -9 -10 -11 -11 -11 -12 -12 -13 -13 -13 -13 -14 -14 -14 -13 -13 -13 -13 -12 -11 -10 -10 -9 -9 -8 -8 -8 -7 -7 -7 -6 -6
-1 -3 -4 -4 -4 -5 -5 -6 -7 -8 -9 -10 -10 -11 -11 -12 -12 -13 -13 -13 -13 -14 -14 -14 -14 -13 -13 -13 -12 -12 -11 -10 -9 -9 -9 -8 -8 -8 -7 -7 -6 -6 -5
-2 -3 -4 -4 -4 -5 -5 -6 -7 -8 -9 -10 -11 -11 -11 -12 -12 -13 -13 -13 -13 -14 -14 -14 -13 -13 -13 -13 -12 -11 -10 -10 -9 -9 -9 -8 -8 -8 -7 -7 -6 -6 -5
-3 -3 -3 -4 -4 -5 -6 -7 -8 -9 -10 -10 -11 -11 -12 -12 -13 -13 -13 -13 -13 -13 -13 -13 -13 -13 -13 -12 -11 -10 -10 -10 -9 -9 -9 -8 -8 -8 -8 -7 -6 -5 -5
-3 -3 -3 -4 -4 -5 -6 -7 -8 -9 -10 -10 -11 -11 -12 -12 -13 -13 -13 -13 -13 -13 -13 -13 -13 -12 -12 -11 -10 -10 -10 -9 -9 -9 -9 -9 -9 -9 -8 -8 -7 -6 -4
-3 -3 -3 -4 -5 -6 -7 -8 -8 -9 -10 -10 -11 -11 -12 -12 -13 -13 -13 -13 -13 -13 -13 -13 -12 -12 -11 -10 -10 -10 -10 -10 -9 -9 -9 -9 -9 -9 -9 -8 -8 -7 -5
-2 -3 -4 -4 -5 -6 -7 -8 -8 -9 -9 -10 -11 -11 -12 -12 -13 -13 -13 -13 -13 -13 -13 -12 -12 -11 -10 -10 -10 -10 -10 -10 -10 -10 -9 -9 -9 -10 -9 -9 -8 -8 -7
-2 -3 -4 -5 -5 -6 -7 -8 -8 -9 -9 -10 -11 -11 -12 -13 -13 -13 -13 -13 -13 -13 -13 -13 -12 -11 -11 -10 -11 -11 -10 -10 -10 -10 -10 -10 -10 -10 -10 -9 -9 -8 -8
-2 -3 -4 -5 -5 -6 -7 -7 -8 -8 -9 -10 -11 -11 -12 -12 -13 -13 -13 -13 -13 -13 -13 -13 -12 -12 -11 -11 -11 -11 -11 -11 -11 -11 -11 -11 -10 -10 -10 -10 -9 -9 -8
-3 -4 -4 -5 -5 -6 -7 -7 -8 -8 -9 -10 -10 -11 -12 -12 -13 -13 -13 -13 -13 -13 -13 -13 -12 -12 -12 -11 -11 -12 -12 -12 -11 -11 -12 -11 -11 -11 -11 -10 -10 -9 -8
-3 -4 -4 -5 -5 -6 -7 -7 -7 -8 -9 -10 -10 -11 -11 -12 -13 -13 -13 -13 -13 -13 -13 -13 -13 -12 -13 -12 -12 -12 -13 -12 -12 -12 -12 -12 -12 -12 -11 -11 -11 -11 -9
-3 -4 -5 -5 -5 -6 -6 -7 -7 -8 -8 -9 -9 -10 -11 -12 -12 -12 -13 -13 -13 -13 -13 -13 -13 -13 -13 -13 -12 -12 -13 -13 -13 -13 -13 -13 -13 -12 -12 -12 -12 -12 -10
-4 -4 -5 -5 -5 -6 -6 -7 -7 -8 -8 -8 -9 -10 -11 -12 -12 -12 -13 -13 -13 -13 -13 -13 -13 -13 -13 -13 -13 -13 -13 -14 -13 -14 -14 -14 -13 -13 -12 -12 -12 -11 -10
-4 -4 -4 -5 -5 -6 -6 -7 -7 -7 -8 -8 -9 -10 -10 -11 -12 -12 -12 -13 -13 -13 -13 -13 -13 -13 -13 -13 -13 -13 -13 -14 -14 -14 -14 -14 -14 -13 -12 -13 -12 -11 -11
-4 -4 -4 -5 -5 -6 -6 -7 -7 -7 -7 -8 -8 -9 -10 -10 -11 -12 -12 -13 -13 -13 -13 -13 -13 -13 -13 -13 -13 -13 -13 -14 -14 -13 -14 -14 -14 -13 -13 -13 -12 -12 -12
-3 -4 -4 -5 -5 -5 -6 -6 -7 -7 -7 -8 -8 -9 -9 -10 -10 -11 -12 -12 -13 -13 -13 -13 -13 -13 -13 -13 -13 -13 -13 -14 -14 -14 -13 -14 -14 -14 -14 -14 -13 -13 -13
-3 -4 -4 -4 -5 -5 -6 -6 -7 -7 -7 -7 -8 -9 -9 -10 -10 -10 -10 -11 -12 -12 -13 -13 -13 -13 -13 -13 -13 -13 -13 -14 -14 -14 -14 -14 -15 -15 -15 -15 -14 -14 -14

GEFSMW_850_meantemp_024.txt.gz
Temperature
3 3 2 1 -0 -1 -1 -1 -1 -1 -2 -2 -3 -3 -4 -5 -6 -6 -7 -8 -8 -8 -9 -9 -10 -10 -10 -10 -10 -10 -10 -9 -9 -8 -7 -4 -4 -4 -5 -4 -3 -3 -2
3 3 1 0 -1 -1 -1 -1 -1 -2 -3 -4 -5 -5 -5 -5 -6 -7 -8 -8 -8 -9 -10 -10 -11 -11 -11 -11 -11 -11 -11 -11 -11 -12 -12 -10 -8 -6 -5 -4 -4 -4 -3
3 2 1 -0 -1 -1 -1 -1 -2 -3 -3 -4 -5 -5 -5 -6 -7 -7 -8 -9 -9 -10 -10 -11 -11 -12 -12 -13 -13 -12 -12 -12 -12 -12 -12 -11 -10 -10 -8 -7 -6 -6 -5
3 1 0 -1 -1 -1 -1 -2 -3 -3 -4 -5 -5 -6 -7 -7 -8 -9 -9 -9 -10 -10 -11 -12 -12 -13 -13 -13 -13 -13 -13 -13 -13 -13 -12 -12 -11 -11 -9 -9 -8 -7 -6
2 1 0 -1 -1 -1 -2 -2 -3 -4 -4 -5 -6 -7 -8 -9 -9 -9 -10 -10 -11 -11 -12 -12 -13 -13 -13 -13 -14 -14 -13 -14 -14 -13 -13 -12 -11 -11 -10 -10 -9 -8 -7
2 1 0 -1 -1 -2 -2 -2 -3 -4 -5 -5 -6 -8 -8 -9 -9 -9 -10 -11 -12 -12 -12 -13 -13 -13 -13 -14 -14 -14 -14 -14 -13 -13 -13 -12 -12 -11 -11 -10 -10 -9 -8
2 1 0 -1 -2 -2 -2 -3 -3 -4 -5 -6 -7 -8 -8 -9 -10 -10 -11 -12 -12 -12 -12 -13 -13 -13 -13 -13 -14 -14 -14 -13 -13 -13 -12 -12 -11 -11 -11 -10 -10 -9 -8
1 0 -0 -1 -2 -2 -2 -3 -4 -5 -5 -6 -7 -8 -8 -9 -10 -11 -12 -12 -13 -13 -13 -13 -13 -13 -13 -13 -13 -13 -13 -13 -13 -12 -12 -11 -11 -10 -10 -10 -9 -9 -8
1 0 -1 -2 -2 -2 -3 -4 -5 -5 -6 -7 -7 -8 -9 -9 -10 -11 -12 -12 -13 -13 -12 -12 -12 -13 -13 -13 -13 -13 -13 -13 -12 -11 -11 -10 -10 -9 -9 -9 -9 -9 -8
0 -0 -1 -2 -2 -3 -4 -5 -5 -6 -6 -7 -7 -8 -9 -10 -11 -12 -12 -12 -12 -12 -12 -12 -12 -12 -12 -12 -12 -12 -12 -12 -11 -11 -10 -10 -9 -9 -9 -9 -8 -8 -8
0 -1 -1 -2 -2 -3 -4 -5 -5 -6 -6 -7 -7 -8 -9 -10 -11 -12 -12 -12 -12 -12 -12 -12 -12 -11 -11 -11 -11 -11 -11 -11 -11 -10 -10 -10 -9 -9 -9 -9 -8 -8 -8
-0 -1 -1 -2 -3 -4 -4 -5 -5 -6 -6 -7 -7 -8 -9 -10 -11 -12 -12 -12 -12 -12 -11 -11 -11 -11 -11 -11 -10 -10 -10 -10 -10 -10 -10 -10 -9 -9 -9 -9 -9 -9 -8
-0 -1 -1 -2 -3 -4 -4 -5 -5 -6 -6 -7 -7 -8 -9 -10 -11 -12 -12 -12 -12 -12 -11 -11 -11 -11 -11 -11 -10 -10 -10 -10 -10 -10 -10 -10 -10 -10 -9 -9 -9 -9 -9
-0 -1 -2 -3 -3 -4 -4 -5 -5 -6 -6 -7 -7 -8 -9 -10 -11 -12 -12 -12 -12 -12 -12 -11 -11 -10 -10 -11 -11 -10 -10 -10 -10 -10 -10 -10 -10 -10 -10 -10 -10 -9 -9
-1 -1 -2 -3 -3 -4 -4 -5 -5 -6 -6 -7 -7 -8 -9 -10 -11 -12 -12 -12 -12 -12 -12 -12 -11 -10 -10 -10 -11 -11 -11 -11 -11 -10 -10 -10 -11 -10 -11 -10 -10 -10 -10
-0 -1 -2 -3 -3 -4 -4 -5 -5 -6 -6 -7 -7 -8 -9 -10 -11 -11 -12 -12 -12 -12 -12 -12 -12 -11 -10 -11 -11 -12 -12 -12 -12 -12 -11 -11 -11 -11 -11 -11 -11 -10 -10
-0 -1 -2 -3 -3 -4 -4 -5 -5 -6 -6 -6 -7 -8 -9 -10 -11 -11 -12 -12 -12 -13 -13 -12 -12 -11 -11 -11 -12 -12 -12 -12 -12 -12 -12 -12 -12 -11 -11 -11 -11 -10 -10
-0 -1 -2 -3 -3 -4 -4 -5 -5 -6 -6 -6 -7 -8 -9 -10 -10 -11 -12 -12 -12 -13 -13 -13 -12 -12 -12 -11 -12 -12 -12 -12 -13 -13 -13 -13 -12 -11 -11 -11 -11 -11 -11
-0 -1 -2 -3 -3 -4 -4 -5 -5 -6 -6 -6 -7 -8 -9 -9 -10 -11 -11 -12 -12 -13 -13 -13 -13 -13 -12 -12 -11 -12 -12 -13 -13 -13 -13 -13 -13 -12 -12 -12 -11 -11 -11
-1 -1 -2 -3 -3 -4 -4 -5 -5 -6 -6 -6 -7 -8 -9 -9 -10 -10 -11 -12 -12 -13 -13 -13 -13 -13 -13 -12 -12 -12 -13 -13 -13 -14 -14 -13 -13 -13 -12 -13 -12 -12 -11
-1 -1 -2 -3 -3 -4 -4 -5 -5 -5 -6 -6 -7 -8 -9 -9 -10 -10 -10 -11 -12 -12 -12 -12 -13 -13 -13 -12 -12 -12 -13 -13 -13 -14 -14 -14 -13 -13 -13 -13 -13 -13 -11
-1 -1 -2 -2 -3 -4 -4 -4 -5 -5 -6 -6 -7 -8 -8 -9 -9 -10 -10 -10 -11 -11 -12 -12 -12 -12 -12 -12 -12 -12 -12 -13 -13 -14 -14 -14 -14 -14 -14 -14 -13 -12 -11
-0 -1 -2 -2 -3 -3 -4 -4 -5 -5 -6 -6 -7 -7 -8 -9 -9 -10 -10 -10 -10 -11 -11 -12 -12 -12 -12 -12 -12 -12 -13 -13 -14 -14 -14 -14 -14 -14 -14 -14 -13 -12 -11
-1 -1 -2 -2 -3 -3 -4 -4 -5 -5 -6 -6 -6 -7 -7 -8 -8 -9 -10 -10 -10 -11 -11 -11 -11 -11 -11 -11 -11 -12 -12 -13 -13 -14 -14 -14 -14 -14 -14 -14 -13 -13 -13
-0 -1 -2 -2 -3 -3 -4 -4 -5 -5 -6 -6 -6 -7 -7 -7 -8 -8 -9 -9 -10 -11 -11 -11 -11 -11 -11 -11 -11 -11 -12 -13 -13 -14 -14 -14 -14 -14 -14 -14 -14 -13 -13
-0 -1 -2 -2 -3 -3 -4 -4 -5 -5 -5 -6 -6 -6 -7 -7 -7 -7 -7 -8 -9 -10 -10 -11 -11 -10 -10 -10 -11 -11 -12 -13 -13 -14 -14 -14 -14 -14 -14 -14 -14 -14 -14

GEFSMW_850_meantemp_030.txt.gz
Temperature
5 3 2 2 2 1 1 0 -0 -1 -1 -1 -2 -2 -3 -4 -5 -6 -7 -8 -9 -9 -10 -11 -11 -11 -11 -11 -11 -11 -11 -11 -11 -11 -10 -10 -8 -7 -6 -5 -5 -4 -4
5 3 2 2 1 1 1 0 -1 -2 -2 -2 -2 -3 -4 -5 -6 -7 -8 -9 -9 -10 -11 -11 -11 -11 -12 -12 -12 -12 -12 -12 -11 -12 -11 -10 -9 -6 -6 -7 -6 -5 -5
5 3 2 2 1 1 1 -0 -1 -2 -2 -2 -3 -4 -5 -6 -7 -7 -8 -9 -10 -10 -11 -11 -12 -12 -12 -12 -12 -12 -12 -12 -12 -12 -12 -12 -10 -10 -9 -7 -6 -6 -6
5 4 2 1 1 1 1 -0 -1 -2 -2 -3 -4 -5 -5 -7 -7 -8 -9 -10 -10 -11 -11 -11 -12 -12 -12 -12 -12 -12 -12 -12 -12 -12 -12 -12 -12 -12 -10 -9 -8 -7 -7
5 3 2 2 1 1 0 -1 -2 -2 -3 -3 -4 -5 -6 -7 -8 -9 -9 -10 -10 -11 -11 -11 -11 -12 -12 -12 -12 -12 -12 -12 -13 -13 -12 -12 -12 -12 -11 -10 -9 -8 -7
4 2 2 2 2 1 -0 -1 -2 -2 -3 -3 -4 -5 -6 -7 -8 -9 -10 -10 -11 -11 -11 -11 -11 -11 -11 -12 -12 -12 -12 -12 -12 -13 -13 -12 -12 -12 -11 -10 -9 -8 -8
3 2 2 2 1 1 -0 -1 -2 -3 -3 -4 -5 -6 -7 -8 -9 -10 -10 -11 -11 -11 -11 -11 -11 -11 -11 -11 -11 -11 -12 -12 -12 -12 -12 -12 -12 -12 -11 -11 -10 -9 -8
3 2 2 1 1 0 -1 -1 -2 -3 -3 -4 -5 -6 -7 -8 -9 -10 -11 -11 -11 -11 -11 -11 -11 -11 -11 -11 -11 -11 -11 -11 -11 -12 -12 -12 -12 -11 -11 -11 -10 -9 -8
2 2 1 1 1 0 -1 -1 -2 -3 -3 -4 -5 -6 -7 -8 -9 -10 -11 -11 -11 -12 -11 -11 -11 -11 -11 -11 -11 -11 -11 -11 -11 -11 -11 -11 -11 -11 -10 -10 -10 -9 -8
2 1 1 1 1 0 -1 -1 -2 -3 -4 -4 -5 -6 -7 -8 -9 -10 -11 -11 -11 -12 -12 -11 -11 -11 -11 -11 -11 -11 -11 -11 -10 -10 -10 -10 -10 -10 -10 -10 -9 -9 -9
3 2 2 1 1 -0 -1 -2 -2 -3 -4 -5 -5 -6 -7 -8 -9 -10 -10 -11 -11 -12 -12 -12 -12 -11 -11 -11 -11 -11 -11 -11 -11 -11 -10 -10 -10 -10 -10 -9 -9 -9 -9
3 2 2 1 1 -0 -1 -2 -3 -3 -4 -5 -5 -6 -7 -8 -9 -9 -10 -11 -11 -12 -12 -12 -12 -11 -11 -11 -11 -11 -11 -11 -11 -11 -11 -11 -10 -10 -10 -10 -9 -9 -9
2 2 2 1 0 -1 -1 -2 -3 -3 -4 -5 -5 -6 -7 -8 -9 -9 -10 -11 -11 -12 -12 -12 -12 -12 -11 -11 -12 -12 -11 -12 -12 -12 -12 -12 -11 -11 -10 -10 -10 -10 -9
2 2 2 1 0 -1 -2 -2 -3 -3 -4 -5 -5 -6 -7 -8 -8 -9 -9 -10 -11 -12 -12 -12 -12 -12 -11 -11 -11 -12 -11 -12 -12 -12 -12 -12 -12 -11 -10 -10 -10 -10 -10
2 2 2 1 0 -1 -1 -2 -3 -3 -4 -5 -5 -6 -7 -7 -8 -8 -9 -10 -11 -11 -12 -12 -12 -12 -11 -11 -11 -11 -12 -12 -12 -12 -12 -12 -12 -11 -11 -11 -11 -11 -11
3 3 2 1 0 -1 -1 -2 -3 -3 -4 -5 -5 -6 -7 -7 -8 -8 -9 -9 -10 -11 -11 -11 -11 -11 -11 -11 -11 -11 -12 -12 -12 -13 -13 -12 -12 -12 -11 -11 -11 -11 -11
4 4 3 2 0 -1 -1 -2 -3 -3 -4 -5 -5 -6 -7 -7 -8 -8 -9 -9 -10 -10 -11 -11 -11 -12 -11 -11 -11 -11 -11 -12 -12 -13 -13 -13 -12 -12 -11 -12 -12 -12 -11
6 4 3 1 0 -1 -1 -2 -3 -3 -4 -5 -5 -6 -6 -7 -8 -8 -8 -9 -9 -10 -10 -11 -11 -11 -11 -11 -11 -11 -11 -11 -12 -13 -13 -13 -12 -12 -11 -12 -12 -12 -11
6 5 3 1 0 -1 -1 -2 -2 -3 -4 -5 -5 -6 -6 -7 -7 -8 -8 -9 -9 -9 -10 -11 -11 -11 -11 -10 -11 -10 -11 -11 -12 -12 -13 -13 -12 -12 -12 -12 -12 -12 -11
5 4 2 1 0 -1 -2 -2 -2 -3 -4 -4 -5 -6 -6 -7 -7 -7 -8 -8 -9 -9 -10 -10 -10 -10 -10 -10 -10 -10 -10 -11 -12 -12 -12 -13 -12 -12 -12 -13 -13 -12 -12
5 3 2 1 0 -1 -1 -2 -2 -3 -4 -4 -5 -6 -6 -7 -7 -7 -8 -8 -8 -9 -9 -10 -10 -10 -10 -10 -10 -10 -11 -11 -12 -12 -13 -13 -13 -13 -13 -13 -13 -13 -12
5 3 2 1 -0 -1 -1 -2 -2 -3 -4 -4 -5 -6 -6 -6 -7 -7 -7 -7 -8 -8 -10 -10 -10 -10 -10 -10 -10 -10 -11 -11 -12 -13 -13 -13 -13 -13 -13 -13 -13 -13 -12
5 3 2 1 -0 -1 -1 -2 -2 -3 -4 -4 -5 -5 -6 -6 -6 -6 -6 -7 -7 -8 -10 -10 -10 -10 -10 -9 -10 -10 -11 -11 -12 -13 -13 -13 -13 -13 -13 -14 -13 -13 -13
5 3 2 1 0 -0 -1 -2 -2 -3 -3 -4 -5 -5 -5 -6 -6 -6 -6 -6 -6 -8 -10 -10 -11 -10 -10 -10 -10 -10 -10 -11 -12 -12 -13 -13 -13 -13 -13 -13 -13 -13 -13
5 3 2 1 1 -0 -1 -2 -2 -3 -3 -4 -5 -5 -5 -5 -5 -5 -5 -6 -6 -7 -9 -10 -11 -11 -10 -10 -10 -10 -11 -11 -12 -12 -12 -13 -13 -13 -13 -13 -13 -13 -13
6 4 3 2 1 -0 -1 -2 -2 -3 -3 -4 -4 -5 -5 -5 -5 -5 -5 -5 -6 -6 -7 -8 -10 -11 -11 -11 -10 -10 -11 -11 -11 -11 -12 -12 -13 -13 -13 -13 -13 -14 -13

GEFSMW_850_meantemp_036.txt.gz
Temperature
10 9 8 7 5 4 3 2 2 2 2 2 2 1 1 -0 -1 -2 -3 -4 -5 -6 -7 -8 -8 -9 -9 -9 -10 -10 -10 -10 -10 -11 -11 -11 -10 -11 -10 -10 -10 -10 -9
11 10 8 7 5 4 3 2 1 2 2 2 1 1 0 -1 -2 -3 -4 -5 -6 -7 -8 -8 -9 -9 -10 -10 -10 -10 -10 -10 -10 -11 -11 -11 -11 -11 -11 -11 -11 -10 -10
12 11 9 7 5 4 3 2 1 2 2 1 1 0 -0 -1 -2 -3 -4 -5 -6 -7 -8 -9 -9 -9 -10 -10 -10 -10 -10 -10 -10 -10 -11 -11 -11 -11 -11 -11 -11 -10 -10
13 12 10 8 6 4 3 2 1 2 2 1 1 -0 -1 -1 -2 -3 -4 -5 -6 -7 -8 -9 -9 -10 -10 -10 -10 -10 -10 -10 -10 -10 -10 -11 -11 -11 -11 -11 -11 -10 -10
12 11 10 8 6 4 3 2 2 2 1 1 0 -0 -1 -2 -3 -4 -5 -6 -6 -7 -8 -9 -10 -10 -10 -10 -10 -10 -10 -10 -10 -10 -10 -10 -11 -11 -11 -11 -11 -10 -10
13 11 10 8 6 4 3 2 2 1 1 1 0 -0 -1 -2 -3 -4 -5 -6 -7 -8 -8 -9 -10 -10 -10 -10 -11 -11 -10 -10 -10 -10 -11 -11 -11 -11 -11 -11 -11 -11 -9
12 11 9 7 6 4 3 2 2 1 1 0 -0 -1 -1 -2 -3 -4 -5 -6 -7 -8 -9 -9 -10 -10 -11 -11 -11 -11 -11 -10 -10 -10 -11 -11 -11 -11 -10 -11 -10 -10 -10
12 10 9 7 5 4 3 2 2 1 1 0 -0 -1 -2 -3 -3 -4 -5 -6 -7 -8 -9 -9 -10 -11 -11 -11 -11 -11 -11 -11 -11 -11 -11 -11 -11 -11 -11 -10 -10 -10 -10
12 10 8 7 5 4 3 2 1 1 1 0 -0 -1 -2 -3 -3 -4 -5 -6 -7 -8 -9 -9 -10 -11 -11 -11 -11 -11 -11 -11 -11 -11 -11 -11 -11 -11 -11 -11 -10 -10 -10
12 10 8 6 4 3 2 1 1 1 1 0 -0 -1 -2 -3 -4 -4 -5 -6 -7 -8 -9 -9 -10 -11 -11 -11 -11 -11 -11 -11 -11 -11 -11 -11 -11 -11 -11 -11 -11 -10 -10
13 11 8 6 4 2 1 1 1 1 1 0 -1 -1 -2 -3 -4 -5 -6 -6 -7 -8 -8 -9 -10 -11 -11 -11 -12 -11 -11 -11 -11 -11 -11 -12 -12 -12 -12 -11 -11 -11 -10
13 11 8 5 3 2 1 1 1 1 0 -0 -1 -1 -2 -3 -4 -5 -6 -6 -7 -7 -8 -9 -10 -10 -11 -11 -12 -12 -11 -11 -11 -11 -11 -12 -12 -12 -12 -12 -11 -11 -10
12 10 7 5 3 2 1 1 1 1 0 -0 -1 -2 -2 -3 -4 -5 -5 -6 -7 -7 -8 -9 -9 -10 -10 -11 -11 -11 -11 -11 -11 -11 -11 -12 -12 -12 -12 -11 -11 -11 -10
12 9 7 5 3 2 1 1 1 1 0 -0 -1 -2 -2 -3 -4 -5 -5 -6 -6 -7 -8 -9 -9 -10 -10 -10 -10 -10 -10 -10 -10 -11 -11 -12 -12 -12 -12 -11 -11 -10 -10
12 10 7 5 3 2 1 1 1 1 0 -0 -1 -2 -2 -3 -4 -4 -5 -5 -6 -7 -8 -9 -9 -9 -9 -9 -10 -10 -9 -10 -10 -10 -11 -11 -12 -11 -11 -11 -11 -10 -11
12 10 8 6 4 3 2 1 1 1 1 -0 -1 -2 -2 -3 -4 -4 -5 -5 -6 -6 -7 -8 -9 -9 -9 -10 -9 -9 -9 -9 -10 -10 -11 -11 -12 -12 -11 -11 -11 -11 -11
13 11 9 7 5 4 3 2 2 1 1 -0 -1 -2 -2 -3 -4 -4 -4 -5 -5 -6 -7 -8 -9 -9 -9 -9 -9 -8 -8 -9 -10 -10 -11 -11 -12 -12 -11 -11 -12 -12 -12
14 12 11 8 6 4 3 2 2 1 1 -0 -1 -2 -2 -3 -3 -4 -4 -5 -5 -6 -7 -8 -9 -9 -9 -9 -9 -8 -8 -9 -10 -11 -11 -11 -12 -12 -11 -11 -12 -12 -12
14 13 11 9 6 4 3 2 2 1 1 -0 -1 -2 -2 -3 -3 -4 -4 -4 -5 -6 -7 -8 -9 -9 -9 -9 -9 -8 -9 -9 -10 -11 -11 -12 -12 -12 -11 -12 -12 -12 -12
13 12 11 9 6 5 4 3 2 1 1 0 -1 -2 -2 -3 -3 -3 -4 -4 -5 -5 -6 -7 -8 -9 -9 -9 -9 -8 -9 -9 -10 -11 -11 -12 -12 -11 -11 -12 -12 -12 -12
13 11 10 9 7 6 4 3 2 2 1 0 -1 -2 -2 -3 -3 -3 -4 -4 -5 -5 -6 -6 -7 -9 -10 -10 -9 -9 -9 -9 -10 -11 -11 -12 -12 -11 -12 -12 -12 -12 -12
12 11 9 8 7 6 4 3 3 2 1 -0 -1 -1 -2 -3 -3 -3 -4 -4 -5 -5 -5 -6 -7 -8 -10 -10 -10 -9 -9 -9 -10 -11 -11 -11 -11 -11 -12 -12 -12 -12 -13
12 10 9 7 6 5 5 4 3 2 1 -0 -1 -2 -2 -3 -3 -3 -4 -4 -4 -5 -5 -6 -7 -8 -9 -10 -10 -10 -10 -10 -10 -11 -11 -11 -11 -12 -12 -12 -12 -13 -13
12 10 8 7 6 5 5 4 3 2 1 0 -1 -2 -2 -3 -3 -3 -4 -4 -4 -5 -5 -6 -7 -8 -9 -10 -10 -10 -10 -10 -10 -10 -10 -11 -11 -12 -12 -12 -12 -13 -13
12 10 9 8 7 6 5 4 2 2 1 0 -1 -2 -2 -3 -3 -3 -4 -4 -4 -5 -5 -6 -7 -8 -9 -10 -10 -10 -10 -10 -10 -10 -10 -10 -11 -11 -12 -12 -12 -12 -13
12 10 9 8 6 5 5 4 3 2 1 0 -1 -1 -2 -2 -3 -3 -4 -4 -4 -5 -5 -6 -7 -7 -9 -10 -10 -10 -10 -10 -10 -10 -10 -11 -11 -11 -12 -12 -12 -12 -13

GEFSMW_850_meantemp_042.txt.gz
Temperature
14 12 11 10 9 8 8 7 7 6 6 5 4 4 3 2 1 1 0 -0 -1 -2 -2 -3 -4 -5 -5 -7 -8 -8 -9 -9 -10 -10 -10 -10 -9 -9 -9 -9 -9 -9 -9
14 13 11 10 9 9 8 8 7 7 6 5 4 4 3 2 2 1 0 -1 -1 -2 -3 -3 -4 -5 -6 -7 -8 -9 -9 -10 -10 -11 -11 -11 -11 -10 -9 -9 -10 -10 -10
15 14 13 12 11 10 9 9 8 7 6 5 4 3 3 2 2 1 0 -1 -1 -2 -3 -4 -4 -5 -7 -8 -9 -9 -10 -10 -11 -11 -11 -12 -11 -11 -11 -10 -10 -10 -10
16 15 14 13 12 12 11 9 8 7 6 5 4 3 3 2 1 1 0 -1 -1 -2 -3 -4 -5 -6 -7 -8 -9 -9 -10 -11 -11 -11 -11 -11 -12 -12 -12 -11 -11 -11 -11
17 16 16 15 14 13 11 10 9 7 6 5 4 3 3 2 1 1 -0 -1 -2 -2 -3 -4 -5 -6 -7 -8 -9 -10 -10 -11 -11 -11 -11 -11 -11 -12 -12 -12 -12 -11 -11
18 17 16 15 14 13 11 10 9 7 6 5 4 3 3 2 1 1 -0 -1 -2 -3 -3 -4 -5 -6 -7 -8 -9 -10 -10 -11 -11 -11 -11 -11 -11 -12 -12 -13 -13 -12 -11
19 17 16 15 14 13 12 11 9 8 6 5 4 3 3 2 1 0 -0 -1 -2 -2 -3 -4 -5 -6 -7 -8 -9 -9 -10 -11 -11 -11 -11 -11 -11 -11 -12 -13 -13 -13 -12
19 18 17 16 15 14 13 11 10 8 7 5 4 3 2 2 1 0 -1 -1 -2 -3 -3 -4 -5 -6 -7 -8 -9 -9 -10 -10 -10 -11 -11 -11 -11 -11 -12 -12 -13 -13 -13
19 18 17 16 15 14 13 12 10 9 7 5 4 3 2 2 1 -0 -1 -1 -2 -3 -4 -5 -5 -6 -7 -8 -9 -9 -9 -10 -10 -10 -10 -10 -10 -11 -11 -12 -12 -13 -13
19 18 17 17 16 14 13 11 10 8 7 5 4 3 2 2 1 -0 -1 -2 -2 -3 -4 -5 -6 -6 -7 -8 -8 -9 -9 -9 -9 -9 -9 -10 -10 -11 -11 -11 -12 -12 -13
19 19 18 17 16 14 13 11 9 8 6 5 3 3 2 1 0 -0 -1 -2 -2 -3 -4 -5 -5 -6 -7 -8 -8 -8 -9 -9 -9 -9 -9 -10 -10 -11 -11 -11 -12 -12 -12
19 19 18 17 15 14 13 11 10 8 6 5 3 3 2 1 0 -0 -1 -2 -3 -3 -4 -5 -5 -6 -7 -8 -8 -8 -8 -9 -9 -9 -9 -10 -10 -11 -11 -11 -11 -12 -12
19 18 17 17 16 15 13 12 10 8 6 4 3 2 2 1 0 -1 -1 -2 -3 -3 -4 -5 -5 -6 -7 -7 -8 -8 -8 -8 -8 -9 -9 -10 -10 -11 -11 -11 -11 -11 -11
18 18 17 17 16 15 13 12 10 8 6 4 3 2 2 1 0 -1 -2 -2 -3 -3 -4 -4 -5 -6 -6 -7 -7 -8 -8 -8 -8 -9 -9 -10 -10 -11 -11 -11 -11 -11 -11
18 18 17 17 16 15 14 12 10 8 6 4 3 2 2 1 -0 -1 -2 -2 -3 -3 -4 -4 -5 -5 -6 -7 -7 -8 -8 -8 -8 -9 -9 -10 -11 -11 -11 -11 -11 -11 -11
17 17 17 17 16 15 14 13 11 9 7 5 3 2 2 1 -0 -1 -2 -2 -3 -3 -4 -4 -5 -5 -6 -6 -8 -8 -8 -8 -8 -9 -9 -10 -10 -11 -11 -11 -11 -11 -11
17 17 17 17 16 15 14 13 12 10 7 5 4 2 1 0 -0 -1 -2 -2 -3 -3 -4 -4 -4 -5 -5 -6 -8 -8 -8 -8 -8 -9 -9 -10 -10 -11 -11 -10 -10 -11 -11
17 17 17 16 16 15 14 13 11 9 7 5 4 3 1 1 -0 -1 -2 -2 -3 -3 -3 -4 -4 -5 -5 -6 -8 -8 -8 -8 -9 -9 -9 -10 -10 -10 -10 -10 -10 -11 -11
17 16 16 15 15 14 13 12 11 9 7 6 4 3 2 1 -0 -1 -1 -2 -3 -3 -3 -4 -4 -5 -5 -6 -7 -8 -9 -9 -9 -9 -9 -10 -10 -10 -9 -10 -11 -11 -11
16 15 15 14 14 14 13 12 11 9 8 7 5 3 2 1 -0 -1 -1 -2 -3 -3 -3 -4 -4 -5 -5 -6 -7 -9 -9 -9 -9 -9 -9 -10 -10 -10 -10 -10 -11 -11 -11
15 14 14 14 14 13 12 11 10 10 9 7 5 3 2 1 -0 -1 -2 -2 -3 -3 -3 -4 -4 -5 -5 -6 -6 -8 -9 -9 -9 -9 -10 -10 -10 -10 -10 -11 -11 -11 -11
14 13 13 13 13 12 11 11 10 10 8 6 5 3 2 1 -0 -1 -2 -2 -3 -3 -3 -4 -4 -5 -5 -6 -7 -8 -9 -9 -9 -10 -10 -10 -10 -10 -11 -11 -11 -12 -12
13 12 12 12 12 12 11 10 10 8 7 5 4 3 2 0 -1 -1 -2 -2 -3 -3 -3 -4 -4 -5 -5 -6 -7 -8 -9 -9 -10 -10 -10 -10 -10 -10 -11 -11 -12 -12 -12
11 11 11 11 11 11 10 10 9 7 6 5 4 3 1 0 -1 -1 -2 -2 -2 -3 -3 -4 -4 -5 -5 -6 -7 -8 -9 -9 -9 -9 -9 -10 -10 -10 -10 -11 -11 -12 -12
10 10 10 10 10 10 10 9 8 6 5 4 3 2 1 0 -1 -1 -1 -2 -2 -3 -3 -4 -4 -5 -5 -6 -8 -9 -9 -10 -10 -9 -9 -9 -9 -10 -10 -11 -11 -12 -12
9 9 9 9 10 9 9 8 7 6 4 3 2 1 0 -0 -1 -1 -2 -2 -3 -3 -3 -4 -4 -5 -5 -6 -8 -9 -9 -9 -9 -9 -9 -9 -10 -10 -11 -11 -11 -11 -12

GEFSMW_850_meantemp_048.txt.gz
Temperature
17 16 15 14 13 12 11 11 10 9 8 7 7 6 6 6 5 4 4 3 3 2 1 1 -0 -1 -2 -3 -4 -4 -4 -5 -6 -7 -7 -6 -6 -6 -7 -8 -8 -8 -8
18 17 16 15 14 13 13 12 11 10 10 9 8 7 6 5 4 4 3 3 3 2 1 1 -0 -1 -2 -2 -4 -4 -5 -5 -6 -8 -9 -9 -8 -8 -8 -8 -8 -8 -8
19 19 17 16 15 15 15 14 14 12 11 10 8 6 5 5 4 4 4 3 3 2 1 1 -0 -1 -2 -2 -3 -4 -5 -6 -6 -8 -9 -10 -11 -11 -9 -8 -9 -9 -9
20 20 19 18 17 17 16 15 15 14 12 10 9 8 7 7 6 5 4 3 2 2 1 0 -0 -1 -2 -2 -3 -4 -5 -6 -6 -7 -8 -9 -11 -12 -11 -10 -9 -10 -10
21 20 20 19 19 18 17 16 15 14 13 12 10 9 8 7 6 4 3 3 2 2 1 0 -0 -1 -2 -3 -3 -4 -5 -6 -7 -8 -8 -9 -10 -10 -12 -12 -10 -10 -10
21 21 20 20 19 18 17 17 16 15 14 13 11 10 9 7 6 5 4 3 3 2 1 0 -0 -1 -2 -3 -3 -4 -5 -6 -7 -8 -8 -9 -10 -10 -11 -12 -11 -11 -11
20 21 21 20 20 19 18 18 17 16 15 14 13 11 10 8 6 5 4 3 3 2 1 0 -0 -1 -2 -3 -4 -4 -5 -6 -7 -7 -8 -9 -9 -9 -10 -11 -11 -11 -11
20 21 21 20 20 19 19 18 17 17 16 15 14 12 11 8 7 5 4 3 3 2 1 0 -1 -1 -2 -3 -4 -4 -5 -6 -7 -7 -8 -8 -9 -9 -9 -10 -11 -12 -11
20 20 20 20 20 19 19 18 18 17 16 15 14 13 11 9 8 6 4 3 2 2 1 0 -1 -1 -2 -3 -4 -4 -5 -6 -6 -7 -8 -8 -8 -9 -9 -9 -10 -12 -12
20 20 20 20 19 19 18 18 17 17 16 15 14 13 12 10 8 6 4 3 2 2 1 0 -1 -1 -2 -3 -4 -4 -5 -6 -6 -7 -8 -8 -8 -8 -9 -9 -10 -11 -12
19 19 18 19 18 18 18 18 17 17 16 15 14 13 12 10 8 6 5 3 2 1 1 0 -1 -1 -2 -3 -4 -4 -5 -5 -6 -7 -8 -8 -8 -9 -9 -9 -10 -11 -11
17 17 17 17 17 17 17 17 17 17 16 15 14 13 11 10 8 6 5 3 2 1 1 -0 -1 -1 -2 -3 -3 -4 -4 -5 -6 -7 -8 -8 -8 -8 -9 -9 -10 -11 -11
16 16 16 16 16 16 16 17 16 16 15 15 14 13 11 10 9 7 5 3 2 1 0 -0 -1 -1 -2 -3 -3 -4 -4 -5 -6 -7 -8 -8 -8 -9 -9 -9 -10 -10 -11
14 15 15 15 15 15 16 16 16 15 15 14 13 13 12 11 9 7 5 3 2 1 0 -0 -1 -1 -2 -3 -3 -4 -4 -5 -6 -7 -8 -8 -8 -9 -9 -9 -10 -10 -10
14 14 15 15 15 15 15 15 15 15 14 14 13 13 12 10 8 7 5 3 2 1 0 -1 -1 -2 -2 -2 -3 -4 -5 -5 -6 -7 -8 -8 -9 -9 -9 -9 -10 -10 -10
14 14 14 14 14 14 14 14 14 14 14 14 13 13 11 10 8 6 4 3 1 1 -0 -1 -1 -2 -2 -3 -3 -4 -5 -6 -6 -7 -8 -8 -9 -9 -9 -10 -10 -10 -9
13 13 13 14 14 14 13 13 13 13 13 13 13 12 11 10 8 5 3 2 1 0 -0 -1 -1 -2 -2 -3 -3 -4 -6 -6 -7 -7 -8 -8 -9 -9 -9 -9 -9 -9 -9
12 12 13 13 13 13 13 13 13 12 12 12 12 11 10 9 7 5 3 2 1 0 -0 -1 -1 -2 -2 -3 -4 -4 -5 -6 -6 -7 -8 -8 -9 -9 -9 -9 -9 -9 -9
11 12 12 12 12 12 12 12 12 12 11 11 11 10 9 8 6 4 3 2 1 0 -0 -1 -2 -2 -3 -3 -4 -4 -5 -5 -6 -7 -8 -8 -9 -9 -9 -9 -9 -9 -10
11 11 11 11 11 11 11 11 11 10 10 10 9 9 8 7 6 4 3 1 0 -0 -1 -1 -2 -2 -3 -3 -4 -4 -5 -5 -6 -7 -7 -8 -9 -9 -9 -9 -9 -10 -10
10 10 10 10 10 10 10 9 9 9 9 8 8 8 7 6 5 3 1 0 -1 -1 -1 -1 -2 -3 -3 -3 -4 -4 -5 -5 -6 -7 -8 -8 -9 -9 -9 -9 -10 -10 -10
9 9 9 9 9 9 8 8 8 8 8 8 8 7 6 5 4 2 0 -1 -2 -2 -2 -2 -2 -3 -3 -4 -4 -4 -5 -6 -7 -8 -8 -8 -9 -9 -10 -10 -10 -10 -11
8 8 8 8 8 8 7 7 7 7 7 7 7 6 6 4 3 1 -1 -2 -2 -3 -2 -2 -2 -2 -3 -3 -4 -4 -5 -6 -7 -8 -8 -9 -9 -9 -9 -10 -10 -11 -11
7 7 7 7 7 7 7 6 6 6 6 6 6 5 4 3 2 -0 -1 -2 -3 -3 -3 -2 -2 -2 -3 -3 -4 -4 -5 -6 -7 -7 -8 -8 -9 -9 -9 -9 -10 -10 -11
6 6 5 5 5 5 5 5 5 5 5 5 5 4 3 2 1 -1 -2 -2 -2 -2 -2 -1 -2 -2 -3 -3 -4 -5 -5 -6 -7 -8 -8 -8 -8 -9 -9 -9 -10 -10 -11
5 4 4 4 4 4 4 4 4 4 4 4 4 3 2 1 -0 -2 -3 -3 -4 -3 -3 -3 -3 -3 -3 -4 -4 -5 -5 -6 -7 -8 -8 -8 -8 -9 -9 -10 -10 -10 -11